�������l�o���
Date,Time,MP-1(��Sv/h),MP-2(��Sv/h),MP-3(��Sv/h),MP-4(��Sv/h),MP-5(��Sv/h),MP-6(��Sv/h),MP-7(��Sv/h),MP-8(��Sv/h),����,����(m/s),���J
2022/12/29,00:00,0.566,0.814,0.514,1.045,0.721,0.324,0.585,0.555,��,10.0,��
2022/12/29,00:10,0.566,0.816,0.514,1.043,0.721,0.324,0.584,0.554,��,8.0,��
2022/12/29,00:20,0.563,0.815,0.514,1.047,0.720,0.324,0.584,0.554,��,9.1,��
2022/12/29,00:30,0.565,0.814,0.512,1.044,0.720,0.322,0.586,0.554,��,9.7,��
2022/12/29,00:40,0.565,0.816,0.514,1.047,0.720,0.323,0.585,0.556,��,9.9,��
2022/12/29,00:50,0.566,0.816,0.513,1.045,0.720,0.323,0.584,0.555,��,10.5,��
2022/12/29,01:00,0.564,0.815,0.513,1.046,0.720,0.323,0.586,0.554,��,10.1,��
2022/12/29,01:10,0.567,0.815,0.514,1.046,0.721,0.324,0.587,0.554,��,11.0,��
2022/12/29,01:20,0.565,0.815,0.514,1.045,0.721,0.323,0.584,0.556,��,10.7,��
2022/12/29,01:30,0.567,0.815,0.513,1.045,0.721,0.322,0.585,0.554,��,10.8,��
2022/12/29,01:40,0.566,0.815,0.513,1.045,0.721,0.324,0.585,0.555,��,9.1,��
2022/12/29,01:50,0.566,0.816,0.515,1.045,0.720,0.324,0.584,0.556,��,8.8,��
2022/12/29,02:00,0.566,0.816,0.513,1.045,0.721,0.325,0.584,0.556,��,9.1,��
2022/12/29,02:10,0.567,0.816,0.515,1.046,0.720,0.323,0.586,0.556,��,6.6,��
2022/12/29,02:20,0.565,0.813,0.513,1.046,0.720,0.324,0.585,0.556,��,6.0,��
2022/12/29,02:30,0.566,0.814,0.515,1.045,0.721,0.324,0.584,0.556,��,7.1,��
2022/12/29,02:40,0.564,0.813,0.513,1.043,0.721,0.323,0.585,0.556,���k��,4.2,��
2022/12/29,02:50,0.565,0.815,0.513,1.046,0.721,0.323,0.584,0.554,���쐼,4.4,��
2022/12/29,03:00,0.564,0.814,0.515,1.044,0.722,0.323,0.583,0.556,��,2.8,��
2022/12/29,03:10,0.567,0.816,0.513,1.045,0.721,0.324,0.583,0.556,��,3.5,��
2022/12/29,03:20,0.567,0.815,0.514,1.044,0.721,0.323,0.585,0.556,���k��,4.1,��
2022/12/29,03:30,0.567,0.816,0.511,1.044,0.720,0.323,0.584,0.557,���k��,5.2,��
2022/12/29,03:40,0.564,0.814,0.513,1.046,0.719,0.325,0.585,0.556,���k��,5.0,��
2022/12/29,03:50,0.565,0.814,0.513,1.043,0.720,0.323,0.585,0.557,���k��,6.9,��
2022/12/29,04:00,0.564,0.814,0.513,1.044,0.717,0.322,0.585,0.556,���k��,4.5,��
2022/12/29,04:10,0.564,0.814,0.514,1.042,0.719,0.321,0.583,0.555,�쐼,2.0,��
2022/12/29,04:20,0.564,0.815,0.513,1.046,0.720,0.322,0.584,0.555,���쐼,2.5,��
2022/12/29,04:30,0.563,0.814,0.513,1.042,0.721,0.322,0.584,0.554,�쐼,4.1,��
2022/12/29,04:40,0.564,0.813,0.510,1.042,0.719,0.322,0.585,0.554,���쐼,3.2,��
2022/12/29,04:50,0.563,0.814,0.513,1.044,0.720,0.321,0.584,0.555,�쐼,3.2,��
2022/12/29,05:00,0.564,0.816,0.511,1.043,0.720,0.322,0.584,0.556,��쐼,3.4,��
2022/12/29,05:10,0.566,0.814,0.513,1.045,0.719,0.323,0.584,0.555,�쐼,3.8,��
2022/12/29,05:20,0.564,0.814,0.511,1.042,0.720,0.321,0.582,0.553,�쐼,4.1,��
2022/12/29,05:30,0.564,0.816,0.513,1.042,0.719,0.322,0.584,0.556,��,2.8,��
2022/12/29,05:40,0.564,0.817,0.511,1.044,0.720,0.324,0.583,0.554,�k��,3.1,��
2022/12/29,05:50,0.564,0.814,0.511,1.042,0.719,0.323,0.583,0.555,�k��,6.1,��
2022/12/29,06:00,0.563,0.813,0.512,1.045,0.720,0.322,0.583,0.553,�k��,4.9,��
2022/12/29,06:10,0.563,0.815,0.514,1.044,0.722,0.322,0.583,0.555,���k��,4.7,��
2022/12/29,06:20,0.563,0.813,0.512,1.046,0.720,0.322,0.584,0.555,�k��,2.2,��
2022/12/29,06:30,0.562,0.813,0.512,1.046,0.720,0.322,0.584,0.556,�k��,2.1,��
2022/12/29,06:40,0.564,0.813,0.511,1.046,0.720,0.321,0.584,0.555,�k�k��,4.1,��
2022/12/29,06:50,0.565,0.813,0.511,1.045,0.721,0.322,0.583,0.555,�k�k��,5.2,��
2022/12/29,07:00,0.563,0.814,0.513,1.043,0.721,0.322,0.583,0.554,�k��,6.0,��
2022/12/29,07:10,0.564,0.815,0.512,1.044,0.721,0.322,0.584,0.553,�k��,6.0,��
2022/12/29,07:20,0.563,0.813,0.513,1.045,0.720,0.323,0.585,0.554,�k��,5.2,��
2022/12/29,07:30,0.563,0.814,0.511,1.047,0.720,0.322,0.582,0.557,�k��,4.9,��
2022/12/29,07:40,0.565,0.815,0.513,1.044,0.720,0.323,0.583,0.556,�k��,4.6,��
2022/12/29,07:50,0.563,0.814,0.511,1.046,0.722,0.324,0.582,0.553,�k�k��,5.8,��
2022/12/29,08:00,0.565,0.815,0.512,1.045,0.719,0.322,0.584,0.554,�k��,5.5,��
2022/12/29,08:10,0.563,0.816,0.514,1.046,0.721,0.322,0.584,0.554,���k��,5.2,��
2022/12/29,08:20,0.563,0.815,0.512,1.044,0.718,0.322,0.583,0.554,�k��,3.4,��
2022/12/29,08:30,0.562,0.817,0.513,1.046,0.720,0.322,0.585,0.553,�k�k��,2.7,��
2022/12/29,08:40,0.564,0.816,0.512,1.045,0.720,0.322,0.586,0.554,�k�k��,3.0,��
2022/12/29,08:50,0.567,0.815,0.514,1.048,0.721,0.324,0.587,0.556,�k�k��,2.9,��
2022/12/29,09:00,0.565,0.817,0.512,1.045,0.721,0.323,0.585,0.555,�k�k��,3.0,��
2022/12/29,09:10,0.565,0.818,0.514,1.044,0.722,0.323,0.583,0.556,�k,4.4,��
2022/12/29,09:20,0.566,0.818,0.512,1.046,0.719,0.323,0.587,0.553,�k,1.9,��
2022/12/29,09:30,0.567,0.816,0.513,1.045,0.722,0.323,0.584,0.555,�k�k��,1.9,��
2022/12/29,09:40,0.564,0.816,0.514,1.046,0.721,0.323,0.585,0.555,�k�k��,2.7,��
2022/12/29,09:50,0.564,0.814,0.514,1.048,0.721,0.322,0.583,0.554,�k�k��,3.8,��
2022/12/29,10:00,0.566,0.813,0.513,1.044,0.722,0.324,0.583,0.555,�k��,1.7,��
2022/12/29,10:10,0.567,0.814,0.514,1.046,0.722,0.323,0.581,0.554,�k�k��,2.2,��
2022/12/29,10:20,0.566,0.812,0.513,1.045,0.722,0.325,0.581,0.554,�k�k��,2.9,��
2022/12/29,10:30,0.565,0.814,0.514,1.046,0.723,0.323,0.583,0.554,�k,3.9,��
2022/12/29,10:40,0.566,0.814,0.514,1.046,0.723,0.323,0.581,0.554,�k�k��,4.1,�L
2022/12/29,10:50,0.566,0.815,0.513,1.048,0.722,0.323,0.582,0.556,�k,1.9,��
2022/12/29,11:00,0.567,0.815,0.513,1.046,0.723,0.324,0.582,0.554,�k��,1.4,�L
2022/12/29,11:10,0.566,0.814,0.516,1.046,0.722,0.324,0.581,0.555,�k,1.5,��
2022/12/29,11:20,0.565,0.814,0.514,1.045,0.724,0.324,0.582,0.555,�k,1.6,�L
2022/12/29,11:30,0.569,0.816,0.514,1.046,0.722,0.323,0.581,0.555,�k�k��,0.8,�L
2022/12/29,11:40,0.568,0.818,0.513,1.045,0.723,0.325,0.583,0.556,�k��,2.7,��
2022/12/29,11:50,0.567,0.818,0.514,1.045,0.725,0.323,0.583,0.555,��,2.8,��
2022/12/29,12:00,0.567,0.815,0.514,1.047,0.723,0.324,0.583,0.555,���k��,8.8,��
2022/12/29,12:10,0.566,0.819,0.512,1.046,0.722,0.324,0.583,0.556,���k��,9.4,��
2022/12/29,12:20,0.570,0.819,0.513,1.044,0.722,0.324,0.583,0.556,���k��,7.1,��
2022/12/29,12:30,0.568,0.818,0.514,1.044,0.723,0.324,0.582,0.554,���k��,9.1,�L
2022/12/29,12:40,0.568,0.817,0.514,1.050,0.724,0.325,0.584,0.556,�k�k��,6.4,�L
2022/12/29,12:50,0.568,0.817,0.514,1.047,0.723,0.322,0.583,0.556,�k�k��,6.0,��
2022/12/29,13:00,0.568,0.816,0.513,1.047,0.723,0.324,0.584,0.554,�k��,4.7,��
2022/12/29,13:10,0.568,0.815,0.513,1.048,0.723,0.324,0.586,0.555,�k�k��,3.1,��
2022/12/29,13:20,0.567,0.816,0.514,1.047,0.724,0.324,0.583,0.555,�k�k��,5.5,��
2022/12/29,13:30,0.567,0.816,0.515,1.048,0.723,0.324,0.584,0.554,�k�k��,6.4,�L
2022/12/29,13:40,0.568,0.817,0.513,1.051,0.724,0.325,0.584,0.555,�k�k��,5.8,�L
2022/12/29,13:50,0.567,0.814,0.513,1.051,0.724,0.324,0.585,0.554,�k�k��,5.8,�L
2022/12/29,14:00,0.567,0.814,0.513,1.050,0.725,0.324,0.583,0.554,�k�k��,6.0,�L
2022/12/29,14:10,0.569,0.814,0.514,1.049,0.725,0.326,0.582,0.554,�k��,5.0,�L
2022/12/29,14:20,0.568,0.816,0.515,1.048,0.725,0.325,0.584,0.553,�k�k��,5.3,�L
2022/12/29,14:30,0.568,0.818,0.514,1.052,0.725,0.325,0.585,0.553,�k�k��,5.6,�L
2022/12/29,14:40,0.569,0.819,0.515,1.049,0.725,0.325,0.583,0.554,�k�k��,5.8,�L
2022/12/29,14:50,0.568,0.819,0.516,1.052,0.726,0.323,0.585,0.554,�k�k��,4.6,�L
2022/12/29,15:00,0.569,0.818,0.515,1.050,0.725,0.326,0.584,0.555,�k��,6.9,�L
2022/12/29,15:10,0.569,0.821,0.514,1.049,0.723,0.324,0.583,0.556,�k��,7.2,�L
2022/12/29,15:20,0.566,0.821,0.516,1.052,0.725,0.325,0.584,0.557,�k��,5.5,�L
2022/12/29,15:30,0.568,0.820,0.515,1.048,0.726,0.324,0.585,0.556,�k��,5.3,�L
2022/12/29,15:40,0.569,0.819,0.516,1.052,0.724,0.326,0.585,0.558,�k��,4.9,�L
2022/12/29,15:50,0.567,0.821,0.514,1.051,0.726,0.325,0.585,0.556,�k��,5.5,�L
2022/12/29,16:00,0.567,0.821,0.517,1.051,0.725,0.324,0.585,0.557,���k��,5.2,�L
2022/12/29,16:10,0.567,0.821,0.516,1.052,0.724,0.325,0.586,0.556,���k��,5.5,�L
2022/12/29,16:20,0.568,0.821,0.515,1.050,0.724,0.325,0.587,0.554,���k��,5.8,�L
2022/12/29,16:30,0.569,0.819,0.515,1.051,0.724,0.325,0.587,0.555,���k��,5.2,��
2022/12/29,16:40,0.566,0.818,0.516,1.047,0.726,0.324,0.586,0.555,���k��,5.3,��
2022/12/29,16:50,0.566,0.818,0.515,1.049,0.725,0.325,0.585,0.554,�k��,4.9,��
2022/12/29,17:00,0.566,0.818,0.514,1.052,0.722,0.325,0.586,0.556,�k��,4.5,��
2022/12/29,17:10,0.567,0.819,0.515,1.048,0.723,0.324,0.585,0.556,�k��,4.9,��
2022/12/29,17:20,0.565,0.818,0.514,1.049,0.725,0.322,0.584,0.555,�k��,5.8,��
2022/12/29,17:30,0.567,0.818,0.514,1.048,0.724,0.323,0.586,0.555,���k��,6.4,��
2022/12/29,17:40,0.565,0.817,0.514,1.048,0.722,0.325,0.586,0.556,���k��,6.7,��
2022/12/29,17:50,0.565,0.820,0.513,1.048,0.723,0.326,0.585,0.555,���k��,7.2,��
2022/12/29,18:00,0.564,0.819,0.514,1.048,0.724,0.323,0.585,0.555,�k��,5.5,��
2022/12/29,18:10,0.564,0.818,0.513,1.046,0.724,0.324,0.585,0.555,�k��,6.0,��
2022/12/29,18:20,0.565,0.819,0.514,1.047,0.722,0.322,0.586,0.555,�k��,5.3,��
2022/12/29,18:30,0.564,0.817,0.514,1.048,0.723,0.324,0.585,0.555,�k��,4.2,��
2022/12/29,18:40,0.567,0.817,0.513,1.048,0.723,0.324,0.584,0.556,�k��,4.9,��
2022/12/29,18:50,0.566,0.819,0.512,1.048,0.722,0.325,0.585,0.555,�k��,5.6,��
2022/12/29,19:00,0.566,0.819,0.512,1.047,0.723,0.324,0.586,0.555,�k��,5.6,��
2022/12/29,19:10,0.564,0.817,0.514,1.047,0.724,0.323,0.584,0.556,�k��,5.2,��
2022/12/29,19:20,0.566,0.819,0.513,1.049,0.724,0.324,0.582,0.555,�k��,4.6,��
2022/12/29,19:30,0.564,0.817,0.511,1.048,0.723,0.324,0.583,0.555,�k��,4.6,��
2022/12/29,19:40,0.564,0.818,0.514,1.047,0.722,0.324,0.585,0.554,�k��,4.1,��
2022/12/29,19:50,0.563,0.816,0.512,1.046,0.723,0.323,0.584,0.555,�k��,4.1,��
2022/12/29,20:00,0.566,0.818,0.514,1.047,0.722,0.323,0.585,0.554,�k��,4.1,��
2022/12/29,20:10,0.564,0.816,0.515,1.046,0.723,0.323,0.585,0.553,�k��,3.2,��
2022/12/29,20:20,0.565,0.817,0.514,1.047,0.722,0.322,0.584,0.555,�k��,3.5,��
2022/12/29,20:30,0.565,0.818,0.513,1.050,0.724,0.322,0.585,0.556,���k��,4.4,��
2022/12/29,20:40,0.566,0.817,0.513,1.047,0.723,0.323,0.584,0.556,�k��,2.7,��
2022/12/29,20:50,0.564,0.817,0.513,1.049,0.722,0.323,0.586,0.554,�k��,2.8,��
2022/12/29,21:00,0.565,0.818,0.511,1.046,0.723,0.322,0.584,0.554,���k��,3.9,��
2022/12/29,21:10,0.567,0.818,0.512,1.048,0.723,0.323,0.585,0.555,���k��,3.5,�L
2022/12/29,21:20,0.566,0.817,0.514,1.046,0.723,0.323,0.585,0.555,�k��,2.8,�L
2022/12/29,21:30,0.565,0.820,0.514,1.047,0.724,0.323,0.584,0.556,�k��,3.9,�L
2022/12/29,21:40,0.568,0.818,0.513,1.047,0.722,0.324,0.585,0.556,���k��,4.1,�L
2022/12/29,21:50,0.567,0.818,0.515,1.048,0.725,0.324,0.584,0.554,���k��,3.8,�L
2022/12/29,22:00,0.568,0.820,0.515,1.049,0.726,0.324,0.585,0.556,���k��,4.9,�L
2022/12/29,22:10,0.567,0.819,0.516,1.050,0.725,0.324,0.584,0.555,���k��,6.4,�L
2022/12/29,22:20,0.568,0.819,0.516,1.048,0.725,0.324,0.584,0.557,��,6.7,�L
2022/12/29,22:30,0.568,0.820,0.516,1.052,0.725,0.325,0.585,0.554,���k��,6.3,�L
2022/12/29,22:40,0.568,0.822,0.517,1.051,0.727,0.328,0.587,0.555,��,6.6,�L
2022/12/29,22:50,0.568,0.820,0.515,1.050,0.725,0.327,0.586,0.555,��,5.8,�L
2022/12/29,23:00,0.565,0.819,0.514,1.051,0.726,0.327,0.586,0.556,���k��,6.6,�L
2022/12/29,23:10,0.566,0.817,0.514,1.049,0.722,0.326,0.583,0.555,��,6.0,��
2022/12/29,23:20,0.566,0.816,0.515,1.047,0.723,0.323,0.585,0.555,��,4.6,��
2022/12/29,23:30,0.566,0.817,0.513,1.047,0.721,0.325,0.584,0.554,��,4.4,��
2022/12/29,23:40,0.563,0.816,0.513,1.047,0.722,0.322,0.584,0.555,��,5.2,��
2022/12/29,23:50,0.565,0.816,0.514,1.046,0.720,0.325,0.582,0.555,��,4.7,��
